This demonstration page uses our WeatherBlox Daily Observations layout. Learn more.

Left ArrowRight Arrow

Hourly Observations for August 22, 2018

Temp ( °F °C ) Dew Point ( °F °C ) Humidity (%) Winds ( mph kmh ) Pressure ( in mb ) Visibility ( mi km ) Precip ( " mm )
12:15 am 00:15 Clear 65 18.2 65 18.2 100 100 NW 7 11 30.00 1016 7 11 0.00 0.00
12:35 am 00:35 Clear 65 18.1 65 18.1 100 100 NNW 8 13 30.00 1016 7 11 0.00 0.00
12:55 am 00:55 Clear 65 18.1 64 18 99 99 NW 6 9 30.00 1016 7 11 0.00 0.00
1:15 am 01:15 Clear 64 18 64 17.8 99 99 WNW 3 6 30.00 1016 7 11 0.00 0.00
1:35 am 01:35 Clear 64 17.6 64 17.6 100 100 WNW 3 6 30.03 1017 7 11 0.00 0.00
1:55 am 01:55 Clear 63 17.3 63 17.3 100 100 NW 5 7 30.03 1017 7 11 0.00 0.00
2:15 am 02:15 Clear 63 17.3 63 17.3 100 100 NW 5 7 30.00 1016 7 11 0.00 0.00
2:35 am 02:35 Clear with Mist and Fog 62 16.8 62 16.8 100 100 WNW 3 6 30.00 1016 5 8 0.00 0.00
2:55 am 02:55 Clear with Mist and Fog 63 17 63 17 100 100 WNW 5 7 30.00 1016 5 8 0.00 0.00
3:15 am 03:15 Clear with Mist and Fog 63 17 63 17 100 100 Calm 30.00 1016 5 8 0.00 0.00
3:35 am 03:35 Clear with Mist and Fog 63 17 63 17 100 100 WNW 5 7 30.00 1016 5 8 0.00 0.00
3:55 am 03:55 Clear with Mist and Fog 62 16.7 62 16.7 100 100 WNW 3 6 30.03 1017 4 6 0.00 0.00
4:15 am 04:15 Clear with Mist and Fog 62 16.5 62 16.5 100 100 Calm 30.03 1017 3 5 0.00 0.00
4:35 am 04:35 Clear with Mist and Fog 61 16.3 61 16.3 100 100 W 3 6 30.03 1017 3 4 0.00 0.00
4:55 am 04:55 Clear with Mist and Fog 62 16.6 62 16.6 100 100 WNW 3 6 30.03 1017 3 5 0.00 0.00
5:15 am 05:15 Partly Cloudy with Mist and Fog 62 16.6 62 16.6 100 100 WNW 5 7 30.03 1017 3 5 0.00 0.00
5:35 am 05:35 Cloudy with Mist and Fog 62 16.7 62 16.7 100 100 WNW 5 7 30.03 1017 3 5 0.00 0.00
5:55 am 05:55 Mostly Cloudy with Mist and Fog 63 17 63 17 100 100 NW 6 9 30.03 1017 4 6 0.00 0.00
6:15 am 06:15 Cloudy with Mist and Fog 63 17.2 63 17.2 100 100 NW 7 11 30.06 1018 5 8 0.00 0.00
6:35 am 06:35 Cloudy with Mist and Fog 63 17.3 63 17.3 100 100 NNW 3 6 30.06 1018 4 6 0.00 0.00
6:55 am 06:55 Cloudy with Mist and Fog 64 17.5 64 17.5 100 100 NNW 6 9 30.06 1018 5 8 0.00 0.00
7:15 am 07:15 Cloudy with Mist and Fog 64 17.5 64 17.5 100 100 NNW 6 9 30.06 1018 5 8 0.00 0.00
7:35 am 07:35 Cloudy with Mist and Fog 63 17.2 63 17.2 100 100 N 6 9 30.06 1018 5 8 0.00 0.00
7:55 am 07:55 Cloudy with Mist and Fog 63 17.1 63 17.1 100 100 N 6 9 30.06 1018 5 8 0.00 0.00
8:15 am 08:15 Mostly Cloudy 63 17.1 63 17.1 100 100 N 7 11 30.06 1018 7 11 0.00 0.00
8:35 am 08:35 Cloudy 63 17.3 63 17.2 99 99 N 7 11 30.06 1018 7 11 0.00 0.00
8:55 am 08:55 Cloudy 64 17.5 63 17 97 97 NNW 7 11 30.06 1018 10 16 0.00 0.00
9:15 am 09:15 Mostly Cloudy 63 17.3 61 15.9 92 92 N 9 15 30.09 1019 10 16 0.00 0.00
9:35 am 09:35 Partly Cloudy 65 18.1 61 16.2 89 89 NNW 7 11 30.09 1019 10 16 0.00 0.00
9:55 am 09:55 Partly Cloudy 65 18.4 62 16.4 88 88 N 10 17 30.09 1019 10 16 0.00 0.00
10:15 am 10:15 Partly Cloudy 64 17.5 60 15.3 87 87 N 10 17 30.09 1019 10 16 0.00 0.00
10:35 am 10:35 Partly Cloudy 66 19 60 15.4 80 80 N 12 19 30.09 1019 10 16 0.00 0.00
10:55 am 10:55 Mostly Cloudy 67 19.3 60 15.7 80 80 NNE 10 17 30.09 1019 10 16 0.00 0.00
11:15 am 11:15 Partly Cloudy 67 19.7 60 15.3 76 76 N 8 13 30.09 1019 10 16 0.00 0.00
11:35 am 11:35 Mostly Cloudy 68 20.1 58 14.5 70 70 N 12 19 30.12 1020 10 16 0.00 0.00
11:55 am 11:55 Mostly Cloudy 68 20.2 60 15.3 74 74 N 13 20 30.12 1020 10 16 0.00 0.00
12:15 pm 12:15 Mostly Cloudy 67 19.3 59 14.8 75 75 N 8 13 30.12 1020 10 16 0.00 0.00
12:35 pm 12:35 Partly Cloudy 69 20.6 58 14.3 67 67 N 8 13 30.12 1020 10 16 0.00 0.00
12:55 pm 12:55 Partly Cloudy 69 20.6 58 14.3 67 67 NNW 9 15 30.12 1020 10 16 0.00 0.00
1:15 pm 13:15 Mostly Cloudy 69 20.3 58 14.2 68 68 NNW 10 17 30.12 1020 10 16 0.00 0.00
1:35 pm 13:35 Mostly Cloudy 71 21.4 58 14.3 64 64 N 8 13 30.12 1020 10 16 0.00 0.00
1:55 pm 13:55 Partly Cloudy 71 21.5 57 14 62 62 N 10 17 30.12 1020 10 16 0.00 0.00
2:15 pm 14:15 Partly Cloudy 71 21.5 59 14.9 66 66 N 8 13 30.12 1020 10 16 0.00 0.00
2:35 pm 14:35 Mostly Cloudy 71 21.5 57 13.9 62 62 NNW 9 15 30.12 1020 10 16 0.00 0.00
2:55 pm 14:55 Mostly Cloudy 71 21.4 56 13.6 61 61 N 9 15 30.12 1020 10 16 0.00 0.00
3:15 pm 15:15 Mostly Cloudy 70 21.3 57 13.7 62 62 NNW 8 13 30.12 1020 10 16 0.00 0.00
3:35 pm 15:35 Mostly Cloudy 71 21.5 58 14.2 63 63 N 8 13 30.09 1019 10 16 0.00 0.00
3:55 pm 15:55 Mostly Cloudy 71 21.9 57 14.1 61 61 NNW 8 13 30.09 1019 10 16 0.00 0.00
4:15 pm 16:15 Mostly Cloudy 71 21.8 57 13.8 61 61 N 6 9 30.09 1019 10 16 0.00 0.00
4:35 pm 16:35 Partly Cloudy 71 21.8 56 13.3 59 59 NNW 9 15 30.09 1019 10 16 0.00 0.00
4:55 pm 16:55 Sunny 73 22.5 55 12.8 54 54 NNW 10 17 30.06 1018 10 16 0.00 0.00
5:15 pm 17:15 Partly Cloudy 71 21.9 55 12.8 56 56 NNW 10 17 30.09 1019 10 16 0.00 0.00
5:35 pm 17:35 Sunny 73 22.6 55 13 55 55 NNW 12 19 30.06 1018 10 16 0.00 0.00
5:55 pm 17:55 Partly Cloudy 73 22.5 55 12.5 53 53 NNW 12 19 30.06 1018 10 16 0.00 0.00
6:15 pm 18:15 Partly Cloudy 72 22.1 52 11.2 50 50 NNW 13 20 30.06 1018 10 16 0.00 0.00
6:35 pm 18:35 Partly Cloudy 71 21.7 52 10.9 50 50 NNW 12 19 30.09 1019 10 16 0.00 0.00
6:55 pm 18:55 Sunny 70 21.2 52 11.3 53 53 N 7 11 30.09 1019 10 16 0.00 0.00
7:15 pm 19:15 Sunny 69 20.7 51 10.8 53 53 NNW 8 13 30.09 1019 10 16 0.00 0.00
7:35 pm 19:35 Sunny 68 19.8 54 12.3 62 62 N 5 7 30.09 1019 10 16 0.00 0.00
7:55 pm 19:55 Sunny 66 19 55 13 68 68 N 3 6 30.09 1019 10 16 0.00 0.00
8:15 pm 20:15 Sunny 64 17.8 56 13.6 77 77 N 3 6 30.09 1019 10 16 0.00 0.00
8:35 pm 20:35 Clear 62 16.6 57 14.1 85 85 NNW 3 6 30.09 1019 10 16 0.00 0.00
8:55 pm 20:55 Clear 60 15.8 57 13.8 88 88 Calm 30.09 1019 10 16 0.00 0.00
9:15 pm 21:15 Clear 59 15 57 14.1 94 94 Calm 30.12 1020 10 16 0.00 0.00
9:35 pm 21:35 Clear 58 14.3 58 14.3 100 100 Calm 30.12 1020 10 16 0.00 0.00
9:55 pm 21:55 Clear 57 13.7 57 13.7 100 100 Calm 30.12 1020 10 16 0.00 0.00
10:15 pm 22:15 Clear 56 13.4 56 13.4 100 100 Calm 30.15 1021 10 16 0.00 0.00
10:35 pm 22:35 Clear 56 13.5 56 13.5 100 100 Calm 30.15 1021 10 16 0.00 0.00
10:55 pm 22:55 Clear 56 13.4 56 13.4 100 100 Calm 30.15 1021 10 16 0.00 0.00
11:15 pm 23:15 Clear 55 12.9 55 12.9 100 100 Calm 30.15 1021 10 16 0.00 0.00
11:35 pm 23:35 Clear 55 12.5 55 12.5 100 100 Calm 30.15 1021 10 16 0.00 0.00
11:55 pm 23:55 Clear 54 12.3 54 12.3 100 100 Calm 30.15 1021 10 16 0.00 0.00

Powered by AerisWeather